Vavau International (NFTV)

Aerodrome — Elev 236
Tonga
S018.35.07.210 W173.57.42.180
Loading chart...

Current Weather

NFTV 240600Z 13010KT 9999 FEW017 SCT040 BKN120 25/19 Q1011

Published 5 hours 5 minutes ago

Airport Activity

Loading chart...
Loading chart...

Positions

CallsignRadio Name / Freq / Voice Room / TypeFrequencyVoice RoomType
NZZO_FSS Auckland Radio
128.900
nzzo_fss
128.900nzzo_fss
NSFA_CTR Faleolo Control
123.800
nsfa_ctr
123.800nsfa_ctr
NFTV_TWR Vavau Tower
118.100
nftv_twr
118.100nftv_twr
UNICOM NZZO UNICOM
122.800
unicom_nzzo
122.800unicom_nzzo